Location: Rumah Dana
(3.1167°N, 113.0167°E)
Time: 03:36:47
(UTC+00:00)

PSLV R/B - Pass Details

Date: 20 January 2026
Orbit: 560 x 588 km, 98.0° (Epoch: 11 February)

Event Time Altitude Azimuth Distance (km) Brightness Sun altitude
Rises 11:37:46 0° 170° (S) 2,789 7.0 -14.9°
Reaches altitude 10° 11:39:54 10° 171° (S) 1,893 6.2 -15.4°
Maximum altitude 11:44:01 82° 258° (WSW) 592 3.5 -16.3°
Drops below altitude 10° 11:48:08 10° 346° (NNW) 1,900 6.0 -17.3°
Sets 11:50:17 0° 347° (NNW) 2,800 6.9 -17.8°
